GW0560 Weather Reports


time (UTC)temp
F
wind
direction
speed
knots
gust
knots
rain 1hr
in
rain 24hr
in
rain mn
in
humidity
%
barometer
mb
20260509053058 45 0 0.0 0.9 0.00 0.01 0.00 62 1005.2
20260509051600 45 0 0.0 0.9 0.00 0.01 0.00 62 1005.4
20260509050051 46 0 0.0 0.9 0.00 0.01 0.00 60 1005.5
20260509044554 47 0 0.0 0.9 0.00 0.01 0.00 61 1005.6
20260509043054 49 0 0.0 0.0 0.00 0.01 0.00 59 1005.6
20260509041554 50 0 0.0 0.9 0.00 0.01 0.00 62 1005.7
20260509040054 50 0 0.0 1.7 0.00 0.01 0.00 50 1006.0
20260509034551 50 0 0.0 0.0 0.00 0.01 0.01 54 1006.0
20260509033101 50 0 0.0 0.9 0.00 0.01 0.01 62 1006.1
20260509031554 48 0 0.0 0.0 0.00 0.01 0.01 53 1006.3
20260509030055 47 0 0.0 0.0 0.00 0.01 0.01 65 1006.6
20260509024552 48 0 0.0 0.0 0.00 0.01 0.01 66 1006.7
20260509023050 48 0 0.0 0.0 0.00 0.01 0.01 59 1006.6
20260509021601 49 0 0.0 0.0 0.00 0.01 0.01 55 1006.7
20260509020057 50 0 0.0 0.0 0.00 0.01 0.01 52 1006.6
20260509014553 52 0 0.0 0.0 0.00 0.01 0.01 51 1006.6
20260509013107 53 0 0.0 0.0 0.00 0.01 0.01 49 1006.4
20260509011554 56 0 0.0 0.0 0.00 0.01 0.01 42 1006.2
20260509010054 58 0 0.0 0.9 0.00 0.01 0.01 44 1006.0
20260509004607 59 249 0.0 1.7 0.00 0.01 0.01 32 1006.0
20260509003053 59 0 0.0 0.9 0.00 0.01 0.01 30 1005.9
20260509001556 60 262 0.0 5.2 0.00 0.01 0.01 30 1006.0
20260509000055 60 289 1.7 6.1 0.00 0.01 0.01 28 1005.9
20260508234555 61 289 1.7 6.1 0.00 0.01 0.01 28 1005.8
20260508233100 62 288 3.5 7.8 0.00 0.01 0.01 27 1005.8
20260508231557 63 256 3.5 11.3 0.00 0.01 0.01 26 1005.7
20260508230057 63 286 3.5 9.6 0.00 0.01 0.01 27 1005.8
20260508224610 63 158 3.5 9.6 0.00 0.01 0.01 27 1005.9
20260508223054 63 317 2.6 8.7 0.00 0.01 0.01 26 1006.0
20260508221552 62 208 6.1 11.3 0.00 0.01 0.01 26 1006.1
20260508220057 62 252 6.1 15.6 0.00 0.01 0.01 26 1006.3
20260508214551 62 166 7.8 14.8 0.00 0.01 0.01 27 1006.4
20260508213055 62 207 6.1 10.4 0.00 0.01 0.01 27 1006.6
20260508211553 62 210 2.6 10.4 0.00 0.01 0.01 29 1006.6
20260508210053 61 270 5.2 12.2 0.00 0.01 0.01 29 1006.6
20260508204553 61 155 6.1 11.3 0.00 0.01 0.01 30 1006.9
20260508203056 61 223 7.0 11.3 0.00 0.01 0.01 29 1007.1
20260508201551 60 187 5.2 17.4 0.00 0.01 0.01 30 1007.1
20260508200103 60 188 7.8 15.6 0.00 0.01 0.01 30 1007.4
20260508194557 59 258 2.6 12.2 0.00 0.01 0.01 30 1007.5
20260508193048 59 310 4.3 12.2 0.00 0.01 0.01 31 1007.7
20260508191553 59 199 4.3 14.8 0.00 0.01 0.01 32 1007.9
20260508190054 59 237 0.9 11.3 0.00 0.01 0.01 30 1008.0
20260508184553 59 246 6.1 11.3 0.00 0.01 0.01 30 1008.6
20260508183054 58 255 4.3 13.0 0.00 0.01 0.01 30 1008.6
20260508181556 59 269 4.3 10.4 0.00 0.01 0.01 31 1008.8
20260508180056 58 263 6.1 13.9 0.00 0.01 0.01 31 1008.9
20260508174608 58 242 7.0 12.2 0.00 0.01 0.01 30 1009.4
20260508173052 57 173 4.3 9.6 0.00 0.01 0.01 32 1009.4
20260508171551 57 156 7.0 12.2 0.00 0.01 0.01 31 1009.7
20260508170054 56 165 1.7 8.7 0.00 0.01 0.01 33 1009.8
20260508164557 56 194 4.3 12.2 0.00 0.01 0.01 34 1010.0
20260508163053 55 315 5.2 10.4 0.00 0.01 0.01 33 1010.2
20260508161551 55 188 3.5 12.2 0.00 0.01 0.01 33 1010.1
20260508160055 55 181 6.1 10.4 0.00 0.01 0.01 33 1010.3
20260508154554 54 196 5.2 7.8 0.00 0.01 0.01 36 1010.3
20260508153055 54 223 4.3 9.6 0.00 0.01 0.01 39 1010.3
20260508151600 53 230 2.6 7.8 0.00 0.01 0.01 42 1010.6
20260508150056 53 257 3.5 9.6 0.00 0.01 0.01 42 1010.7
20260508144553 52 305 0.9 10.4 0.00 0.01 0.01 45 1010.9
20260508143056 52 188 0.9 7.0 0.00 0.01 0.01 48 1010.9
20260508141550 51 148 1.7 7.8 0.00 0.01 0.01 53 1011.0
20260508140058 50 261 2.6 7.8 0.00 0.01 0.01 51 1011.1
20260508134554 49 165 4.3 8.7 0.00 0.01 0.01 59 1011.2
20260508133103 48 164 3.5 7.0 0.00 0.01 0.01 61 1011.3
20260508131559 47 140 3.5 6.1 0.00 0.01 0.01 61 1011.5
20260508130105 46 154 3.5 5.2 0.00 0.01 0.01 67 1011.5
20260508124556 45 153 2.6 4.3 0.01 0.01 0.01 75 1011.3
20260508123059 43 160 1.7 3.5 0.01 0.01 0.01 83 1011.3
20260508121620 40 167 0.9 2.6 0.01 0.01 0.01 90 1011.0
20260508120101 38 138 0.9 2.6 0.01 0.01 0.01 95 1010.9
20260508114557 36 0 0.0 0.0 0.00 0.00 0.00 94 1010.9
20260508113105 35 0 0.0 0.0 0.00 0.00 0.00 93 1010.8
20260508111602 34 0 0.0 0.0 0.00 0.00 0.00 93 1010.6
20260508110058 34 0 0.0 0.0 0.00 0.00 0.00 93 1010.6
20260508104559 34 0 0.0 0.0 0.00 0.00 0.00 93 1010.7
20260508103051 34 0 0.0 0.0 0.00 0.00 0.00 92 1010.7
20260508101553 34 0 0.0 0.0 0.00 0.00 0.00 91 1010.7
20260508100051 35 0 0.0 0.0 0.00 0.00 0.00 91 1010.6
20260508094552 35 0 0.0 0.0 0.00 0.00 0.00 92 1010.6
20260508093055 36 0 0.0 0.0 0.00 0.00 0.00 91 1010.6
20260508091557 37 0 0.0 0.0 0.00 0.00 0.00 92 1010.8
20260508090059 37 0 0.0 0.0 0.00 0.00 0.00 90 1010.9
20260508084551 37 0 0.0 0.0 0.00 0.00 0.00 90 1010.9
20260508083054 38 0 0.0 0.0 0.00 0.00 0.00 90 1010.8
20260508081605 39 0 0.0 0.0 0.00 0.00 0.00 90 1010.9
20260508080053 39 0 0.0 0.0 0.00 0.00 0.00 89 1010.9
20260508074550 40 0 0.0 0.0 0.00 0.00 0.00 88 1010.9
20260508073104 41 0 0.0 0.0 0.00 0.00 0.00 88 1010.9
20260508071618 41 0 0.0 0.0 0.00 0.00 0.00 86 1010.9
20260508064554 41 0 0.9 3.5 0.00 0.00 0.00 84 1010.8
20260508063057 41 0 0.0 0.0 0.00 0.00 0.00 85 1011.0
20260508061555 42 0 0.0 0.9 0.00 0.00 0.00 87 1010.8
20260508060053 41 180 0.9 3.5 0.00 0.00 0.00 86 1011.2
20260508054602 42 153 0.9 1.7 0.00 0.00 0.00 86 1011.2